Theta_e
300 298 297 297 296 294 292 292 291 290 289 289 288 288 288 288 288 287 288 288 288 287 287 287 287 287 288 286 285 286 285 284 284 282 283 283 281 281 282 280 280 280
300 298 298 298 296 295 294 294 292 291 290 290 290 289 289 289 289 288 288 288 288 287 287 287 287 286 285 285 284 284 283 283 283 285 283 282 281 281 280 280 280 280
300 298 297 297 296 295 294 294 293 292 291 290 290 290 290 289 288 288 288 288 287 287 287 287 286 286 286 285 284 284 283 282 282 282 283 282 281 281 281 280 280 281
299 298 297 297 296 295 295 294 293 293 292 291 290 291 290 290 288 288 287 287 286 286 286 286 286 286 285 285 284 283 284 283 282 282 282 282 282 281 280 280 281 281
299 298 298 297 297 296 295 294 294 293 293 292 291 290 289 288 288 287 286 285 285 285 285 286 286 285 285 284 283 283 283 282 283 282 282 281 282 282 281 281 280 280
300 299 298 297 297 296 295 295 294 293 293 292 291 290 289 289 288 287 286 286 285 285 285 285 285 284 284 283 282 283 283 283 283 282 282 281 281 282 282 281 280 279
300 299 298 298 297 296 295 295 294 293 293 293 291 290 289 288 288 287 287 286 286 286 285 286 286 284 284 283 283 282 283 283 282 282 282 282 282 281 281 281 281 280
300 299 298 297 296 296 295 295 294 294 293 292 291 290 289 288 288 287 286 286 285 285 285 286 286 285 284 283 283 282 283 284 283 282 281 281 281 281 281 282 281 280
300 299 298 297 296 296 296 295 295 294 294 293 292 291 289 288 287 287 286 285 285 285 285 285 285 285 284 284 283 283 284 285 284 282 282 282 281 281 281 281 280 280
300 299 298 297 296 296 296 296 295 295 294 294 293 291 289 288 288 286 285 284 284 285 285 285 285 285 284 285 285 285 285 285 284 283 282 282 282 282 281 281 281 280
299 299 298 297 297 297 296 296 295 295 294 294 292 290 289 287 286 286 285 284 285 285 285 284 284 284 284 284 285 285 285 285 284 284 284 284 283 282 283 282 281 280
299 298 298 298 298 297 297 296 296 295 294 293 292 291 289 287 286 285 285 285 285 285 285 284 283 283 283 283 284 285 285 285 284 284 285 284 283 282 282 282 282 281
299 299 298 298 298 298 298 297 296 295 294 293 292 291 289 287 286 286 285 285 285 285 284 284 282 282 283 283 284 285 285 285 285 285 285 284 284 282 282 282 282 281
300 299 299 299 299 299 298 298 296 295 294 294 292 291 289 288 287 286 286 285 285 285 284 283 283 283 283 284 284 284 284 285 285 285 284 284 284 283 282 282 282 281
300 300 300 299 299 299 299 298 297 295 295 293 291 290 290 289 288 287 286 285 284 284 284 284 284 284 284 284 283 283 284 284 284 284 283 283 283 283 283 282 281 281
300 299 299 299 299 299 299 298 297 296 294 292 291 290 289 288 287 286 286 285 285 284 284 285 285 285 285 286 286 283 283 284 284 284 284 284 284 283 283 283 282 281
299 299 299 299 299 299 299 298 297 294 293 292 291 290 289 288 287 287 286 286 285 285 285 285 285 285 285 288 288 287 284 284 284 284 284 284 283 283 283 282 282 281
299 299 298 298 298 298 298 297 296 294 293 292 291 289 289 288 287 287 287 287 286 286 285 285 285 286 288 288 288 288 287 284 284 284 284 284 284 283 283 283 282 281
298 298 298 298 297 298 298 296 294 293 293 291 290 290 289 288 288 288 287 287 287 286 286 286 285 287 288 288 288 288 288 286 283 283 283 284 284 284 284 283 282 282
298 298 297 297 297 296 295 294 293 293 292 292 291 289 289 289 288 288 287 287 287 286 286 286 285 286 288 288 288 288 289 288 284 283 283 283 284 284 284 283 283 282
298 298 297 296 296 295 293 294 294 293 292 291 291 291 290 289 289 288 288 288 287 287 286 286 286 287 288 288 288 289 288 288 285 284 283 283 284 284 284 283 283 283
297 297 296 294 294 292 293 294 294 293 293 292 291 291 291 290 289 289 288 288 287 287 286 286 286 288 288 288 288 289 289 287 285 284 283 283 282 283 283 283 283 283
297 296 294 293 293 292 293 293 293 293 292 291 291 291 290 290 290 289 289 288 287 287 286 286 286 287 288 288 289 289 288 286 285 284 284 283 282 282 282 282 283 283
295 295 294 293 293 293 293 293 292 291 292 291 291 291 291 291 290 289 288 288 288 287 287 287 287 286 287 288 288 289 287 286 285 284 284 283 283 282 282 283 283 283
291 292 293 293 293 293 293 293 292 292 292 292 293 292 292 290 289 288 288 287 287 288 286 286 287 286 287 288 288 289 287 286 285 285 284 284 283 283 284 283 283 282
294 293 292 292 293 293 293 293 294 294 294 293 293 292 292 291 290 289 289 289 288 287 287 287 287 287 287 288 288 288 288 286 285 284 284 284 284 284 284 284 283 283
Wind_Speed
8 8 9 8 7 6 6 7 7 7 5 4 4 5 5 4 5 5 4 4 4 3 4 3 3 4 4 3 4 5 4 4 4 3 5 5 4 4 4 4 4 3
9 9 8 7 6 7 6 6 8 8 6 5 5 5 5 5 5 6 5 4 4 4 4 3 3 3 4 3 4 5 4 5 4 3 5 5 4 3 2 2 2 2
9 9 9 9 8 8 8 6 7 7 7 6 5 5 5 5 6 5 5 5 4 5 4 4 4 3 3 3 3 4 5 5 5 4 5 5 4 4 2 2 2 1
10 10 9 9 8 8 8 7 6 6 7 6 6 5 6 5 6 6 5 5 4 4 4 4 4 3 3 4 4 4 5 5 5 4 4 4 4 5 3 2 2 0
10 9 9 9 8 8 8 8 8 7 8 7 6 6 6 6 6 6 6 5 4 4 4 4 4 4 4 4 4 5 5 5 5 4 5 5 4 4 3 3 3 1
9 9 10 10 9 10 9 9 9 9 9 8 8 7 6 7 6 7 7 7 5 5 5 4 5 4 5 5 4 4 6 6 5 5 5 6 5 4 3 4 4 3
10 9 10 9 10 10 10 9 8 8 8 8 7 7 7 7 7 7 7 7 7 7 7 6 6 6 5 5 5 5 6 6 5 5 5 5 5 5 4 4 4 4
10 9 10 9 9 9 9 9 8 8 8 8 9 8 8 8 8 7 7 7 7 7 7 6 6 6 6 6 7 5 6 5 6 6 5 5 5 5 5 4 4 4
10 10 9 10 10 9 9 8 8 8 8 9 8 8 7 7 8 8 8 7 6 6 7 7 7 7 6 6 6 6 7 6 6 6 6 6 7 7 6 5 5 4
9 9 10 10 11 9 10 9 8 8 8 8 8 8 9 7 7 8 8 8 8 7 7 7 7 7 7 6 6 6 7 7 7 6 6 5 6 7 7 7 7 6
10 10 10 11 11 9 10 10 9 8 8 9 8 9 9 8 7 7 7 8 9 9 9 8 8 7 6 7 7 7 7 7 7 7 6 6 6 6 7 7 7 7
9 9 11 11 11 10 10 10 9 9 9 8 9 9 9 8 9 8 9 10 10 9 8 8 7 7 7 7 7 6 6 6 7 7 7 7 7 6 7 7 7 7
9 10 10 10 10 10 9 9 9 9 9 9 8 9 10 9 8 9 8 9 9 8 9 8 7 6 8 9 8 8 7 7 7 8 8 7 7 7 6 7 7 7
10 10 10 10 10 9 9 9 9 9 9 8 9 9 9 10 10 10 9 8 8 8 7 7 7 8 9 8 8 8 7 7 7 7 7 6 6 7 6 7 7 7
9 8 8 9 9 9 10 10 11 10 9 9 9 8 8 9 9 9 9 8 7 8 8 8 8 9 8 8 8 7 6 6 5 5 6 7 7 7 7 7 6 7
7 7 8 9 9 10 11 10 10 10 10 9 9 9 8 8 8 8 9 9 9 8 8 8 8 7 9 13 10 7 8 7 6 7 7 7 7 7 8 8 8 7
7 8 8 10 10 10 9 9 10 9 9 9 9 9 9 8 8 9 9 8 9 10 10 9 8 7 12 12 13 13 8 8 9 8 8 8 7 8 9 9 8 8
8 8 9 10 10 10 9 8 8 9 9 9 9 9 8 7 9 10 9 10 9 8 9 9 8 9 11 12 14 15 12 7 5 6 6 8 9 9 9 8 9 9
8 9 9 9 10 10 9 7 8 9 9 9 10 8 7 10 10 9 10 9 9 10 11 9 8 11 15 16 16 17 17 12 7 7 7 8 9 10 9 9 8 8
9 9 8 8 7 6 7 7 7 9 8 8 7 8 10 9 8 10 8 10 10 11 10 9 10 12 15 15 16 17 17 14 9 9 9 9 10 10 10 10 10 9
9 10 9 8 8 8 8 9 9 8 8 8 9 10 10 10 10 10 10 10 11 9 9 10 9 11 14 16 16 16 17 15 10 9 9 10 10 10 11 11 10 9
9 9 8 8 8 8 9 10 10 10 10 8 8 7 7 7 8 9 10 10 9 9 9 10 9 13 15 16 17 16 17 10 9 9 10 10 10 10 9 8 8 9
8 8 8 9 9 10 10 10 9 9 7 6 8 8 8 9 10 10 9 9 10 10 11 11 10 13 17 18 17 19 14 10 10 9 10 11 12 10 9 9 9 8
6 6 7 7 7 9 9 7 5 5 6 6 8 8 10 11 9 8 8 9 10 11 11 11 11 11 17 17 17 18 15 11 10 10 11 11 11 10 9 9 11 14
5 6 7 8 9 9 8 8 9 8 7 8 9 8 8 6 7 7 7 7 9 11 11 13 10 8 14 16 18 19 16 10 9 8 9 11 10 9 9 9 10 11
8 9 9 9 9 8 8 8 7 7 8 8 7 7 7 7 7 8 10 9 8 8 8 10 10 9 11 17 18 19 20 12 8 8 11 12 9 9 8 9 9 10
Wind_Direction
153 159 160 158 156 156 160 153 144 141 160 167 170 171 180 175 156 165 180 163 175 132 131 140 135 128 125 118 112 110 113 105 98 103 97 91 77 77 63 52 57 100
161 161 158 156 153 153 157 161 149 145 163 176 175 174 169 174 159 168 173 156 143 141 147 153 141 140 137 136 134 122 114 106 105 101 104 102 99 86 81 82 64 26
161 163 163 165 162 162 160 163 155 149 158 176 167 175 161 163 155 165 157 159 157 161 164 156 147 150 149 145 155 133 132 130 138 137 119 132 136 117 162 121 95 39
167 167 165 164 163 166 166 159 158 148 146 160 176 161 147 151 151 153 156 161 167 170 164 149 150 156 152 154 161 136 140 146 155 146 134 117 119 134 178 141 144 35
166 165 168 170 170 170 168 165 163 158 155 165 157 147 148 154 158 161 162 171 169 168 166 161 155 158 156 164 174 144 151 143 152 150 142 144 144 141 174 136 162 157
172 171 171 175 174 173 173 175 171 166 163 163 166 157 162 161 165 166 170 172 173 170 171 165 165 166 168 178 189 162 160 150 165 164 153 150 152 147 161 156 168 176
172 174 179 180 177 176 176 177 170 168 167 164 153 164 159 167 170 174 177 179 176 178 175 176 175 176 178 179 193 173 176 159 165 174 159 157 152 161 168 176 174 181
174 178 179 176 177 179 180 175 170 172 166 159 164 161 163 174 176 174 178 182 183 182 180 180 182 178 183 178 192 181 181 158 167 173 169 163 157 171 180 193 180 177
175 178 177 179 181 184 182 175 175 175 171 170 163 159 170 176 177 176 179 179 187 188 183 187 186 184 185 187 193 188 180 169 168 172 176 175 171 182 188 186 184 182
181 180 181 184 185 184 184 182 178 176 171 172 166 162 172 180 176 175 173 183 190 192 192 190 188 188 189 191 194 191 183 179 172 174 181 191 188 184 185 186 187 183
187 185 187 189 188 186 188 184 183 177 175 176 170 172 173 170 178 172 176 183 193 197 195 192 192 188 186 193 201 197 188 179 177 177 186 196 200 197 190 186 187 189
186 187 193 192 191 191 189 188 186 182 177 180 178 175 174 176 171 177 185 194 199 198 194 195 189 188 190 198 203 200 192 181 178 184 189 196 202 203 199 192 188 192
184 192 193 195 195 195 189 187 187 185 179 184 181 182 180 174 176 184 197 197 200 192 196 195 189 184 193 200 199 196 196 189 182 185 192 196 202 204 206 200 193 192
191 189 194 196 196 194 189 187 188 189 189 184 180 187 183 178 179 186 194 198 199 197 199 192 189 195 203 203 199 198 194 198 195 187 187 197 203 208 207 207 202 198
189 185 191 194 192 191 190 191 192 192 189 185 185 185 184 182 179 182 187 195 195 196 199 199 200 204 200 197 199 200 195 193 192 192 192 198 205 208 211 210 210 206
186 187 190 192 194 196 197 192 190 190 188 185 187 185 181 176 177 188 192 193 193 199 207 208 210 204 197 200 198 193 191 188 187 194 197 202 205 210 216 214 212 211
187 193 190 195 198 199 195 193 189 185 186 188 188 185 182 180 179 187 195 192 196 199 207 213 211 204 199 195 195 195 191 195 194 196 194 200 206 212 218 215 218 217
194 191 194 197 195 198 197 191 182 181 188 190 186 185 185 176 190 195 195 198 198 203 212 213 212 204 199 192 196 202 203 198 202 204 200 205 207 213 216 213 216 217
195 196 198 198 198 197 197 183 180 184 189 188 194 189 175 192 201 194 202 198 200 207 215 212 213 202 199 197 199 201 200 195 203 202 205 214 216 217 214 216 214 214
193 196 200 200 192 190 190 193 190 196 192 188 181 180 196 202 198 203 201 204 206 211 215 211 215 207 202 202 203 203 196 196 209 208 212 218 219 219 220 219 216 213
188 193 199 196 191 187 186 195 201 200 192 190 187 193 196 200 197 203 209 209 211 211 215 219 221 204 204 206 206 203 203 203 211 214 223 225 223 223 223 221 219 214
183 190 195 191 187 189 195 201 202 200 198 189 189 196 199 197 208 207 210 210 206 204 213 225 222 202 204 204 205 206 204 208 213 218 225 233 233 230 229 227 222 215
183 184 188 188 187 192 202 205 203 203 200 181 191 196 195 202 210 210 209 206 206 208 213 224 224 208 208 209 204 200 196 207 208 215 226 231 236 230 229 229 225 218
184 184 190 193 195 203 205 205 201 198 196 180 191 193 205 209 205 210 209 207 207 211 212 221 227 210 206 209 205 198 196 205 208 211 222 228 237 231 229 231 230 222
183 185 190 193 199 204 198 198 197 197 195 189 202 203 214 204 201 207 210 209 211 215 211 217 230 210 198 204 204 203 200 206 206 211 223 233 232 235 227 230 234 228
195 195 197 196 203 205 204 206 199 198 198 196 200 200 205 200 200 206 212 216 210 213 216 216 223 221 201 204 203 204 201 200 203 205 222 230 226 227 229 228 228 230